South Hill, VA

3:01 AM EST on December 08, 2019 (GMT -0500)
Mecklenburg-Brunswick Regional

Weather History for KAVC - September, 2019

Change the Weather History Date:

Monday, September 9, 2019

  Actual Average (KEMV) Record (KEMV)
Temperature  
Mean Temperature 76 °F -  
Max Temperature 84 °F 83 °F 96 °F (1985)
Min Temperature 68 °F 57 °F 47 °F (1986)
Cooling Degree Days 12    
Growing Degree Days 26 (Base 50)    
Moisture  
Dew Point 73 °F    
Average Humidity 93    
Maximum Humidity 100    
Minimum Humidity 71    
Precipitation  
Precipitation 0.00 in - - ()
Sea Level Pressure  
Sea Level Pressure 30.21 in    
Wind  
Wind Speed 0 mph (ENE)    
Max Wind Speed 6 mph    
Max Gust Speed -    
Averages and records for this station are not official NWS values.
T = Trace of Precipitation, MM = Missing Value Source: NWS Daily Summary

Daily Weather History Graph

Daily Weather History Graph

Search for Another Location

Airport or City:

Astronomy

Sep. 09, 2019 Rise Set
Actual Time 6:49 AM EDT 7:29 PM EDT
Civil Twilight 6:23 AM EDT 7:55 PM EDT
Nautical Twilight 5:52 AM EDT 8:25 PM EDT
Astronomical Twilight 5:20 AM EDT 8:57 PM EDT
Moon 5:15 PM EDT (9/9) 2:26 AM EDT (9/9)
Length of Visible Light 13h 31m
Length of Day
12h 39m
Waxing Gibbous, 83% of the Moon is Illuminated
Sep 9
Waxing Gibbous
Sep 14
Full
Sep 21
Last Quarter
Sep 28
New
Oct 5
First Quarter

Hourly Weather History & Observations

Time (EDT) Temp. Heat Index Dew Point Humidity Pressure Visibility Wind Dir Wind Speed Gust Speed Precip Events Conditions
12:15 AM 73.4 °F - 73.4 °F 100% 30.14 in - Calm Calm - N/A   Overcast
12:35 AM 73.4 °F - 73.4 °F 100% 30.14 in - Calm Calm - N/A   Overcast
12:55 AM 73.4 °F - 73.4 °F 100% 30.14 in - Calm Calm - N/A   Overcast
1:15 AM 73.6 °F - 73.6 °F 100% 30.14 in - Calm Calm - N/A   Overcast
1:35 AM 73.0 °F - 73.0 °F 100% 30.14 in - Calm Calm - N/A   Mostly Cloudy
1:55 AM 72.5 °F - 72.5 °F 100% 30.14 in - Calm Calm - N/A   Overcast
2:15 AM 72.5 °F - 72.5 °F 100% 30.14 in - Calm Calm - N/A   Overcast
2:35 AM 72.5 °F - 72.5 °F 100% 30.14 in - Calm Calm - N/A   Overcast
2:55 AM 72.7 °F - 72.7 °F 100% 30.14 in - Calm Calm - N/A   Overcast
3:15 AM 72.7 °F - 72.7 °F 100% 30.14 in - Calm Calm - N/A   Overcast
3:35 AM 72.7 °F - 72.7 °F 100% 30.14 in - Calm Calm - N/A   Overcast
3:55 AM 72.7 °F - 72.7 °F 100% 30.14 in - Calm Calm - N/A   Overcast
4:15 AM 72.7 °F - 72.7 °F 100% 30.15 in - Calm Calm - N/A   Overcast
4:35 AM 72.5 °F - 72.5 °F 100% 30.15 in - Calm Calm - N/A   Overcast
4:55 AM 72.7 °F - 72.7 °F 100% 30.15 in - Calm Calm - N/A   Overcast
5:15 AM 72.7 °F - 72.7 °F 100% 30.16 in - Calm Calm - N/A   Overcast
5:35 AM 72.7 °F - 72.7 °F 100% 30.16 in - Calm Calm - N/A   Overcast
5:55 AM 72.7 °F - 72.7 °F 100% 30.16 in - Calm Calm - N/A   Overcast
6:15 AM 72.5 °F - 72.5 °F 100% 30.17 in - Calm Calm - N/A   Overcast
6:35 AM 72.5 °F - 72.5 °F 100% 30.17 in - Calm Calm - N/A   Overcast
6:55 AM 72.5 °F - 72.5 °F 100% 30.18 in - Calm Calm - N/A   Overcast
7:15 AM 72.5 °F - 72.5 °F 100% 30.19 in - Calm Calm - N/A   Overcast
7:35 AM 72.5 °F - 72.5 °F 100% 30.20 in - Calm Calm - N/A   Overcast
7:55 AM 72.5 °F - 72.5 °F 100% 30.20 in - Calm Calm - N/A   Overcast
8:15 AM 72.5 °F - 72.5 °F 100% 30.21 in - North 3.5 mph - N/A   Overcast
8:35 AM 72.7 °F - 72.7 °F 100% 30.22 in - Calm Calm - N/A   Overcast
8:55 AM 72.5 °F - 72.5 °F 100% 30.22 in - NNE 3.5 mph - N/A   Overcast
9:15 AM 72.7 °F - 72.7 °F 100% 30.23 in - North 3.5 mph - N/A   Overcast
9:35 AM 72.9 °F - 72.9 °F 100% 30.23 in - NNE 4.6 mph - N/A   Overcast
9:55 AM 73.2 °F - 73.2 °F 100% 30.23 in - Calm Calm - N/A   Overcast
10:15 AM 72.9 °F - 72.9 °F 100% 30.24 in - Calm Calm - N/A   Overcast
10:55 AM 72.5 °F - 72.5 °F 100% 30.24 in - Calm Calm - N/A   Overcast
11:15 AM 73.4 °F - 73.4 °F 100% 30.24 in - Calm Calm - N/A   Unknown
11:35 AM 75.2 °F - 74.7 °F 98% 30.24 in - Calm Calm - N/A   Overcast
11:55 AM 78.6 °F - 74.8 °F 88% 30.24 in - East 3.5 mph - N/A   Mostly Cloudy
12:15 PM 79.5 °F - 74.3 °F 84% 30.24 in - Calm Calm - N/A   Overcast
12:35 PM 80.4 °F 85.5 °F 74.3 °F 82% 30.23 in - North 3.5 mph - N/A   Overcast
1:15 PM 79.9 °F - 74.3 °F 83% 30.22 in - Calm Calm - N/A   Overcast
1:55 PM 81.7 °F 87.6 °F 74.1 °F 78% 30.22 in - North 4.6 mph - N/A   Overcast
2:15 PM 81.7 °F 87.3 °F 73.9 °F 77% 30.22 in - Calm Calm - N/A   Overcast
2:35 PM 83.5 °F 90.9 °F 74.8 °F 75% 30.21 in - Calm Calm - N/A   Mostly Cloudy
2:55 PM 82.6 °F 88.8 °F 73.8 °F 75% 30.20 in - SSW 3.5 mph - N/A   Mostly Cloudy
3:15 PM 84.0 °F 90.8 °F 73.8 °F 71% 30.20 in - Calm Calm - N/A   Mostly Cloudy
3:35 PM 83.1 °F 89.8 °F 73.9 °F 74% 30.20 in - Calm Calm - N/A   Scattered Clouds
3:55 PM 84.7 °F 92.8 °F 74.7 °F 72% 30.20 in - SE 5.8 mph - N/A   Mostly Cloudy
4:15 PM 82.2 °F 88.0 °F 73.4 °F 75% 30.20 in - SSE 3.5 mph - N/A   Overcast
4:35 PM 82.8 °F 89.2 °F 74.1 °F 75% 30.19 in - Calm Calm - N/A   Mostly Cloudy
4:55 PM 81.7 °F 87.8 °F 74.5 °F 79% 30.19 in - South 3.5 mph - N/A   Scattered Clouds
5:35 PM 80.6 °F 86.4 °F 75.6 °F 85% 30.20 in - Calm Calm - N/A   Mostly Cloudy
5:55 PM 81.1 °F 87.2 °F 75.2 °F 82% 30.20 in - Calm Calm - N/A   Mostly Cloudy
6:35 PM 80.8 °F 86.1 °F 74.5 °F 81% 30.20 in - Calm Calm - N/A   Scattered Clouds
6:55 PM 79.5 °F - 76.3 °F 90% 30.21 in - Calm Calm - N/A   Unknown
7:15 PM 78.8 °F - 75.4 °F 89% 30.22 in - Calm Calm - N/A   Unknown
7:35 PM 77.4 °F - 73.8 °F 89% 30.23 in - Calm Calm - N/A   Unknown
7:55 PM 76.3 °F - 73.4 °F 91% 30.24 in - Calm Calm - N/A   Overcast
8:15 PM 75.2 °F - 72.7 °F 92% 30.24 in - East 4.6 mph - N/A   Overcast
8:35 PM 73.8 °F - 71.6 °F 93% 30.25 in - Calm Calm - N/A   Unknown
8:55 PM 73.2 °F - 70.7 °F 92% 30.26 in - Calm Calm - N/A   Unknown
9:15 PM 72.3 °F - 70.7 °F 95% 30.27 in - Calm Calm - N/A   Unknown
9:35 PM 71.6 °F - 70.3 °F 96% 30.28 in - Calm Calm - N/A   Unknown
9:55 PM 71.2 °F - 70.2 °F 96% 30.29 in - Calm Calm - N/A   Unknown
10:15 PM 70.3 °F - 70.2 °F 99% 30.29 in - Calm Calm - N/A   Unknown
10:35 PM 70.2 °F - 70.2 °F 100% 30.29 in - Calm Calm - N/A   Mostly Cloudy
10:55 PM 70.0 °F - 70.0 °F 100% 30.29 in - Calm Calm - N/A   Overcast
11:15 PM 70.0 °F - 69.8 °F 99% 30.28 in - Calm Calm - N/A   Overcast
11:35 PM 69.4 °F - 69.3 °F 99% 30.28 in - Calm Calm - N/A   Unknown
11:55 PM 68.7 °F - 68.7 °F 100% 30.28 in - Calm Calm - N/A   Unknown